Location: Carrières
(48.9495°N, 2.0407°E)
Time: 23:40:27
(UTC+00:00)

Cosmos 1606 Rocket - Pass Details

Date: 23 June 2024
Orbit: 599 x 628 km, 82.5° (Epoch: 15 July)

Event Time Altitude Azimuth Distance (km) Brightness Sun altitude
Rises 01:06:01 0° 352° (N) 2,919 8.2 -15.9°
Reaches altitude 10° 01:08:17 10° 355° (N) 2,003 7.3 -15.8°
Maximum altitude 01:12:42 67° 79° (ENE) 674 3.8 -15.5°
Enters shadow 01:15:49 19° 159° (SSE) 1,488 5.1 -15.4°
